Location: Unspecified
(0.0000°N, 0.0000°E)
Time: 10:02:20
(UTC+00:00)

Vanguard 2 - Pass Details

Date: 25 October 2021
Orbit: 554 x 2936 km, 32.9° (Epoch: 06 December)

Event Time Altitude Azimuth Distance (km) Brightness Sun altitude
Rises 17:03:49 0° 211° (SSW) 5,215 12.5 9.8°
Reaches altitude 10° 17:08:45 10° 193° (SSW) 4,653 11.9 8.6°
Maximum altitude 17:17:23 18° 154° (SSE) 4,565 11.4 6.5°
Drops below altitude 10° 17:27:38 10° 116° (ESE) 5,674 11.5 4.0°
Sets 17:34:41 0° 100° (E) 6,788 11.8 2.3°
